Miscellaneous Local Product
Issued by NWS Hastings, NE

Home | Current Version | Previous Version | Graphics & Text | Print | Product List | Glossary On
Versions: 1 2 3 4 5 6 7 8 9 10 11 12 13 14 15 16 17 18 19 20 21 22 23 24 25 26 27 28 29 30 31 32 33 34 35 36 37 38 39 40 41 42 43 44 45 46 47 48 49 50
000
AXUS43 KGID 251502
MISGRI

GID CWA HOURLY WEATHER ROUNDUP
NATIONAL WEATHER SERVICE HASTINGS NE
1000 AM CDT FRI JUL 25 2014

NOTE: "FAIR" INDICATES FEW OR NO CLOUDS BELOW 12,000 FEET WITH NO
SIGNIFICANT WEATHER AND/OR OBSTRUCTIONS TO VISIBILITY.

...SOUTH CENTRAL NEBRASKA...

CITY           SKY/WX    TMP DP  RH WIND       PRES   REMARKS
GRAND ISLAND   SUNNY     86  65  49 W13       29.79R
HASTINGS       SUNNY     85  65  51 SW7       29.79S
KEARNEY        SUNNY     84  63  48 SW10      29.81S
ORD            SUNNY     79  65  62 NW12      29.78R
YORK           PTSUNNY   82  72  69 SW13G18   29.78S
AURORA         MOSUNNY   83  71  65 SW9G16    29.78R
LEXINGTON      SUNNY     82  63  52 NW13      29.84R
HOLDREGE       SUNNY     84  60  43 SW9       29.81F
HEBRON         MOSUNNY   84  67  55 SW12G20   29.78F

...NEBRASKA PANHANDLE...

CITY           SKY/WX    TMP DP  RH WIND       PRES   REMARKS
CHADRON        SUNNY     76  35  22 N10       30.02R
ALLIANCE       SUNNY     73  41  31 N13       30.04R
SCOTTSBLUFF    SUNNY     75  55  49 N8        30.06R
SIDNEY         SUNNY     74  55  51 N23G30    30.03S

...WESTERN AND NORTH CENTRAL NEBRASKA...

CITY           SKY/WX    TMP DP  RH WIND       PRES   REMARKS
VALENTINE      CLOUDY    73  65  75 N18G24    29.91R
AINSWORTH      SUNNY     74  65  74 N18G24    29.87R
ONEILL         SUNNY     80  69  69 N9        29.77S
BROKEN BOW     SUNNY     79  65  62 N24G31    29.82R
IMPERIAL       MOSUNNY   77  61  57 N12       29.93R
NORTH PLATTE   SUNNY     78  63  59 N15       29.89R
MCCOOK         MOSUNNY   81  60  48 W8        29.86R

...EASTERN NEBRASKA...

CITY           SKY/WX    TMP DP  RH WIND       PRES   REMARKS
NORFOLK        SUNNY     80  70  71 S12       29.74F
SO SIOUX CITY  SUNNY     74  64  71 SE20G25   29.77S
COLUMBUS       SUNNY     81  70  69 SE8       29.76F
ALBION         SUNNY     81  69  66 SW3       29.76R
OMAHA EPPLEY   MOSUNNY   78  66  66 SE16      29.79F
OFFUTT AFB     SUNNY     78  71  77 E14       29.79F
MILLARD        SUNNY     78  68  72 SE14      29.78F
LINCOLN        MOSUNNY   88  69  53 W15       29.78R HX  92
NEBRASKA CITY  MOSUNNY   78  69  74 E5        29.82R
BEATRICE       PTSUNNY   87  72  60 SW15      29.77F HX  93
FALLS CITY     SUNNY     86  72  62 SW10      29.80R HX  92

...NORTHERN KANSAS...

CITY           SKY/WX    TMP DP  RH WIND       PRES   REMARKS
GOODLAND       SUNNY     85  54  34 N14       29.95R
HILL CITY      PTSUNNY   86  62  44 SW10      29.83S
NORTON         SUNNY     86  57  37 SW7       29.82F
PHILLIPSBURG   SUNNY     88  59  37 SW12      29.81F
SMITH CENTER   SUNNY     88  64  45 SW13      29.81F
HAYS           MOSUNNY   75  63  64 SW15G22   29.84F
RUSSELL        MOSUNNY   89  66  46 SW20G31   29.82F HX  91
CONCORDIA      SUNNY     89  67  47 SW17G32   29.80F HX  92
SALINA         PTSUNNY   88  67  49 SW25G32   29.81F HX  91
TOPEKA         PTSUNNY   85  71  63 SW13      29.84F HX  90



USA.gov is the U.S. government's official web portal to all federal, state and local government web resources and services.